sat.trackr.live / text

‹ back to catalog

STARLINK-11226 [DTC]

NORAD 60907 · 2024-154E

PAYLOAD ACTIVE UNKNOWN

§ Identity

Operator
Country
US
Launch date
2024-08-31
Launch site
AFETR
Launch vehicle
Mass (kg)
RCS (m²)

Purposes: comms

External: N2YO · Heavens-Above · Gunter

§ Orbital elements

Epoch: 2026-05-25T02:31:20.627904Z

Period
91.74 min
Inclination
53.1591°
Eccentricity
0.0001049
Mean motion
15.69713907 rev/d
Perigee alt
359.0 km
Apogee alt
360.4 km
Semi-major
6,737.9 km
B*
5.3508e-6
RAAN
114.7564°
Arg perigee
81.4887°
Mean anomaly
278.6249°
Rev number
10,051

§ Raw data

STARLINK-11226 [DTC]1 60907U 24154E   26145.10509986  .00000060  00000+0  53508-5 0  99952 60907  53.1591 114.7564 0001049  81.4887 278.6249 15.69713907100519

JSON: /api/v1/satellites/60907 · /tle

For live sub-satellite position, see the globe view (requires WebGL).

§ Visibility from observer

Set your observer location to see the next 7 days of passes ≥ 10°. The values pass through the URL so the page stays shareable.

No JS? Fill the form by hand. The geolocation button needs JavaScript.